Content
SEND FEEDBACK

Daily
Averages
Monthly
Summary
Mauritania

NOUADHIBOU, MAURITANIA


Home > Africa > Mauritania
Elevation: 10 feet     Latitude: 20 56N     Longitude: 017 02W

WEATHER
 
SELECT A DAY
Number of Records: 118,056;   Date Range: 7/1/96 - 8/27/14
 
SHARE

PRINT THIS DATA

[ ← Previous Day ]
WEATHER ALMANAC - JANUARY 11, 2013
[ Next Day → ]
[ °C ]   °F
Weather ElementAverageHighLow
Temperature65 °F82.4 °F (3:00 pm) (6:00 am)
Dewpoint40 °F56 °F (9:00 pm) (7:00 pm)
Humidity42.1 %72 % (3:00 am)4 % (3:00 pm)
Barometer28.94 in30.06 in (9:00 am) (7:00 pm)
Wind Speed8.7 mph12.7 mph (9:00 am)
Weather ElementAverage
Visibility5 mi
Wind DirectionESE (117.9 °)

Weather ElementTotal
Precipitation---
Heating Degree Days23.8 (Base 65)
Averaged from 28 records on January 11, 2013
WEATHER CONDITIONS BREAKOUT
WIND DIRECTION BREAKOUT
WEATHER BY HOUR - JANUARY 11, 2013
[ °C ]   °F
Local TimeTemperatureDewpointHumidityBarometerVisibilityWind DirectionWind SpeedGust SpeedPrecipitationEventsConditions
12:00 AM62.6 °F48.2 °F59 %30.04 in5.0 miNNE (20°)9.2 mph
1:00 AM60.8 °F48.2 °F63 %30.04 in5.0 miNNE (20°)10.4 mph
3:00 AM58.0 °F50.0 °F68 %30.03 in5.0 miNorth8.1 mph
3:00 AM57.2 °F48.2 °F72 %30.01 in5.0 miNNE (20°)8.1 mph
4:00 AM57.2 °F48.2 °F72 %30.01 in5.0 miNNE (20°)9.2 mph
5:00 AM60.8 °F41.0 °F48 %29.98 in5.0 miNE (40°)11.5 mph
6:00 AM0.0 °F0.0 °FNorth
6:00 AM60.0 °F42.0 °F39 %30.02 in5.0 miNNE (30°)10.4 mph
7:00 AM59.0 °F37.4 °F45 %30.01 in5.0 miNE (50°)9.2 mph
8:00 AM59.0 °F37.4 °F45 %30.01 in5.0 miNE (40°)8.1 mph
9:00 AM62.0 °F40.0 °F32 %30.06 in5.0 miNE (50°)12.7 mph
9:00 AM62.6 °F37.4 °F39 %30.04 in5.0 miENE (60°)12.7 mph
10:00 AM64.4 °F37.4 °F37 %30.06 in5.0 miNE (50°)12.7 mph
11:00 AM68.0 °F37.4 °F33 %30.06 in5.0 miNE (40°)10.4 mph
12:00 PM71.6 °F37.4 °F29 %30.04 inNE (50°)8.1 mphClear
12:00 PM72.0 °F37.0 °F17 %30.06 in6.0 miNE (50°)9.2 mph
1:00 PM77.0 °F33.8 °F21 %30.01 inENE (60°)9.2 mphClear
2:00 PM80.6 °F32.0 °F17 %29.98 in5.0 miEast (80°)8.1 mph
3:00 PM82.0 °F18.0 °F4 %29.99 in5.0 miESE (120°)5.8 mph
3:00 PM82.4 °F30.2 °F15 %29.98 in5.0 miSE (130°)5.8 mph
4:00 PM82.4 °F26.6 °F13 %29.95 in5.0 miSE (140°)3.5 mph
6:00 PM77.0 °F42.8 °F29 %29.95 in5.0 miWNW (290°)6.9 mph
7:00 PM71.6 °F46.4 °F41 %29.98 in5.0 miNW (310°)10.4 mph
8:00 PM69.8 °F53.6 °F56 %29.98 in5.0 miNW (310°)11.5 mph
9:00 PM67.0 °F56.0 °F60 %30.00 in5.0 miNW (310°)8.1 mph
9:00 PM66.2 °F55.4 °F68 %29.98 in5.0 miNW (320°)8.1 mph
10:00 PM66.2 °F51.8 °F60 %29.98 in5.0 miNNW (340°)3.5 mph
11:00 PM62.6 °F46.4 °F55 %30.01 in5.0 miNorth (350°)3.5 mph
Hourly data recorded from GQPP, located miles away from Nouadhibou, Mauritania







STORIES FROM OUR PARTNERS